TimeEDT,TemperatureF,Dew PointF,Humidity,Sea Level PressureIn,VisibilityMPH,Wind Direction,Wind SpeedMPH,Gust SpeedMPH,PrecipitationIn,Events,Conditions,WindDirDegrees,DateUTC
12:15 AM,40.5,40.1,99,29.88,5.0,East,11.5,19.6,N/A,,Overcast,90,2013-04-11 04:15:00
12:35 AM,40.6,40.3,99,29.88,5.0,East,12.7,18.4,N/A,,Overcast,80,2013-04-11 04:35:00
12:55 AM,40.6,40.3,99,29.89,4.0,East,10.4,-,N/A,Rain,Light Rain,80,2013-04-11 04:55:00
1:15 AM,40.8,40.3,98,29.88,2.5,ENE,13.8,18.4,N/A,Rain,Heavy Rain,60,2013-04-11 05:15:00
1:35 AM,40.5,40.1,99,29.86,3.0,ENE,13.8,-,N/A,Rain,Rain,70,2013-04-11 05:35:00
1:55 AM,40.3,40.1,99,29.87,5.0,ENE,12.7,16.1,N/A,Rain,Light Rain,70,2013-04-11 05:55:00
2:15 AM,40.1,39.7,99,29.86,5.0,NE,10.4,-,N/A,Rain,Rain,50,2013-04-11 06:15:00
2:35 AM,40.1,39.6,98,29.85,4.0,ENE,13.8,-,N/A,Rain,Rain,60,2013-04-11 06:35:00
2:55 AM,39.7,39.4,99,29.86,3.0,NE,8.1,-,N/A,Rain,Heavy Rain,50,2013-04-11 06:55:00
3:15 AM,39.9,39.6,99,29.94,1.2,South,10.4,-,N/A,,Unknown,180,2013-04-11 07:15:00
3:35 AM,39.7,39.4,99,29.85,4.0,East,12.7,-,N/A,Rain,Rain,80,2013-04-11 07:35:00
3:55 AM,39.6,39.2,99,29.81,7.0,ENE,15.0,18.4,N/A,Rain,Light Rain,70,2013-04-11 07:55:00
4:15 AM,39.4,39.2,99,29.82,7.0,ENE,9.2,-,N/A,Rain,Rain,70,2013-04-11 08:15:00
4:35 AM,39.6,39.2,99,29.84,7.0,ENE,9.2,-,N/A,Rain,Rain,70,2013-04-11 08:35:00
4:54 AM,39.6,39.0,98,29.86,4.0,ENE,8.1,-,N/A,Rain,Rain,60,2013-04-11 08:54:00
5:15 AM,39.2,38.7,98,29.84,5.0,NE,9.2,-,N/A,Rain,Light Rain,50,2013-04-11 09:15:00
5:35 AM,39.2,38.8,99,29.81,4.0,East,12.7,-,N/A,Rain,Light Rain,80,2013-04-11 09:35:00
5:54 AM,39.6,39.2,99,29.79,4.0,East,12.7,24.2,N/A,Rain,Light Rain,80,2013-04-11 09:54:00
6:15 AM,39.6,39.2,99,29.79,10.0,East,17.3,23.0,N/A,,Overcast,90,2013-04-11 10:15:00
6:35 AM,39.7,39.2,98,29.82,10.0,East,12.7,16.1,N/A,,Overcast,90,2013-04-11 10:35:00
6:55 AM,40.1,39.2,97,29.82,10.0,East,11.5,-,N/A,,Overcast,80,2013-04-11 10:55:00
7:15 AM,40.1,39.2,97,29.81,10.0,East,13.8,19.6,N/A,,Overcast,80,2013-04-11 11:15:00
7:34 AM,40.1,39.2,97,29.79,10.0,East,15.0,20.7,N/A,,Overcast,80,2013-04-11 11:34:00
7:55 AM,40.6,39.7,97,29.81,10.0,East,10.4,-,N/A,,Overcast,90,2013-04-11 11:55:00
8:15 AM,41.0,39.7,95,29.81,10.0,East,13.8,17.3,N/A,,Overcast,80,2013-04-11 12:15:00
8:35 AM,41.0,39.7,95,29.81,10.0,East,11.5,17.3,N/A,,Overcast,80,2013-04-11 12:35:00
8:55 AM,41.0,39.7,95,29.79,10.0,East,13.8,20.7,N/A,,Overcast,80,2013-04-11 12:55:00
9:15 AM,41.0,39.7,95,29.80,10.0,East,13.8,23.0,N/A,,Overcast,90,2013-04-11 13:15:00
9:35 AM,41.0,39.7,95,29.79,10.0,East,16.1,24.2,N/A,,Overcast,80,2013-04-11 13:35:00
9:55 AM,41.2,40.1,96,29.80,10.0,East,12.7,24.2,N/A,,Overcast,90,2013-04-11 13:55:00
10:15 AM,41.2,40.1,96,29.78,10.0,East,18.4,23.0,N/A,Rain,Light Rain,80,2013-04-11 14:15:00
10:35 AM,41.0,40.1,97,29.79,10.0,East,13.8,26.5,N/A,,Overcast,90,2013-04-11 14:35:00
10:55 AM,41.0,40.1,97,29.79,7.0,East,19.6,24.2,N/A,,Light Drizzle,90,2013-04-11 14:55:00
11:15 AM,41.0,40.1,97,29.77,3.0,East,13.8,20.7,N/A,Rain,Light Rain,80,2013-04-11 15:15:00
11:35 AM,41.0,40.1,97,29.77,3.0,East,15.0,20.7,N/A,Rain,Light Rain,90,2013-04-11 15:35:00
11:55 AM,40.6,40.1,98,29.78,2.0,East,11.5,25.3,N/A,Rain,Rain,90,2013-04-11 15:55:00
12:15 PM,40.6,40.1,98,29.78,3.0,East,16.1,23.0,N/A,Rain,Light Rain,80,2013-04-11 16:15:00
12:35 PM,40.6,40.1,98,29.76,2.5,East,18.4,23.0,N/A,Rain,Light Rain,90,2013-04-11 16:35:00
1:15 PM,41.0,40.3,97,29.76,4.0,East,12.7,18.4,N/A,Rain,Light Rain,100,2013-04-11 17:15:00
1:34 PM,40.6,40.1,98,29.76,3.0,East,15.0,24.2,N/A,Rain,Light Rain,90,2013-04-11 17:34:00
1:55 PM,40.6,40.1,98,29.74,2.0,East,17.3,23.0,N/A,Rain,Light Rain,90,2013-04-11 17:55:00
2:15 PM,40.6,40.3,99,29.72,1.8,East,15.0,23.0,N/A,Rain,Light Rain,100,2013-04-11 18:15:00
2:34 PM,40.6,40.1,98,29.72,2.0,East,15.0,20.7,N/A,Rain,Light Rain,100,2013-04-11 18:34:00
2:55 PM,40.5,39.9,98,29.72,2.0,East,18.4,24.2,N/A,Rain,Rain,90,2013-04-11 18:55:00
3:15 PM,40.3,39.7,98,29.72,3.0,East,10.4,-,N/A,Rain,Light Rain,90,2013-04-11 19:15:00
3:35 PM,40.3,39.7,98,29.71,2.5,East,15.0,18.4,N/A,Rain,Light Rain,100,2013-04-11 19:35:00
3:55 PM,40.3,39.7,98,29.72,2.0,East,10.4,16.1,N/A,Rain,Rain,100,2013-04-11 19:55:00
4:15 PM,40.1,39.6,98,29.70,2.5,East,9.2,16.1,N/A,Rain,Light Rain,100,2013-04-11 20:15:00
4:35 PM,40.1,39.4,97,29.69,4.0,East,11.5,17.3,N/A,Rain,Light Rain,90,2013-04-11 20:35:00
4:55 PM,40.1,39.4,97,29.68,5.0,East,10.4,17.3,N/A,,Overcast,100,2013-04-11 20:55:00
5:15 PM,40.1,39.4,97,29.68,5.0,ESE,11.5,-,N/A,,Light Drizzle,110,2013-04-11 21:15:00
5:35 PM,40.1,39.6,98,29.68,1.8,East,12.7,-,N/A,Rain,Light Rain,100,2013-04-11 21:35:00
5:55 PM,39.7,39.6,99,29.68,1.8,East,11.5,-,N/A,Rain,Rain,90,2013-04-11 21:55:00
6:15 PM,39.2,39.2,100,29.68,1.2,East,13.8,20.7,N/A,,Drizzle,100,2013-04-11 22:15:00
6:35 PM,39.2,39.0,99,29.67,1.8,East,15.0,-,N/A,Rain,Light Rain,100,2013-04-11 22:35:00
6:55 PM,39.2,39.0,99,29.67,2.0,East,13.8,-,N/A,Rain,Light Rain,90,2013-04-11 22:55:00
7:15 PM,39.2,38.8,99,29.65,2.5,East,12.7,-,N/A,Rain,Light Rain,90,2013-04-11 23:15:00
7:35 PM,39.2,38.8,99,29.65,3.0,East,10.4,-,N/A,Rain,Light Rain,90,2013-04-11 23:35:00
7:54 PM,39.2,38.8,99,29.64,4.0,East,10.4,17.3,N/A,Rain,Rain,90,2013-04-11 23:54:00
8:15 PM,39.0,38.7,99,29.65,5.0,East,8.1,-,N/A,Rain,Light Rain,100,2013-04-12 00:15:00
8:35 PM,39.0,38.7,99,29.66,3.0,East,5.8,-,N/A,Rain,Heavy Rain,90,2013-04-12 00:35:00
8:55 PM,38.8,38.7,99,29.66,1.8,ENE,5.8,-,N/A,Rain,Rain,70,2013-04-12 00:55:00
9:15 PM,38.7,38.5,99,29.63,2.5,ENE,8.1,-,N/A,Rain,Light Rain,60,2013-04-12 01:15:00
9:35 PM,38.7,38.5,99,29.63,2.0,East,8.1,-,N/A,Rain,Rain,80,2013-04-12 01:35:00
9:55 PM,38.7,38.5,99,29.64,3.0,ENE,6.9,-,N/A,Rain,Heavy Rain,70,2013-04-12 01:55:00
10:15 PM,38.5,38.3,99,29.62,2.5,ENE,8.1,-,N/A,Rain,Rain,70,2013-04-12 02:15:00
10:35 PM,38.5,38.3,99,29.62,3.0,East,8.1,-,N/A,Rain,Light Rain,80,2013-04-12 02:35:00
10:55 PM,38.3,38.3,100,29.62,4.0,ENE,6.9,-,N/A,Rain,Light Rain,70,2013-04-12 02:55:00
11:15 PM,38.3,38.3,100,29.62,4.0,East,5.8,-,N/A,Rain,Rain,80,2013-04-12 03:15:00
11:35 PM,38.3,38.1,99,29.60,4.0,ENE,5.8,-,N/A,Rain,Rain,70,2013-04-12 03:35:00
11:55 PM,38.3,37.9,99,29.60,7.0,East,5.8,-,N/A,Rain,Rain,80,2013-04-12 03:55:00